{"data":{"norad_id":64589,"epoch":"2026-09-21T20:12:49.226688Z","epoch_age_seconds":61305,"freshness":"FRESH","line1":"1 64589U 25135BP  26264.84223642  .00002091  00000+0  19777-3 0  9994","line2":"2 64589  97.7786  18.4468 0005108  23.5229 336.6224 14.94746702 68347","mean_motion":14.94746702,"eccentricity":0.0005108,"inclination_deg":97.7786,"raan_deg":18.4468,"arg_perigee_deg":23.5229,"mean_anomaly_deg":336.6224,"bstar":0.00019777,"rev_number":6834,"period_min":96.337392688223,"perigee_km":579.60324530968,"apogee_km":586.71490538025,"semimajor_km":6961.296075345,"source":"CELESTRAK","updated_at":"2026-09-22T09:00:29.856600Z"}}